TimeCST,TemperatureF,Dew PointF,Humidity,Sea Level PressureIn,VisibilityMPH,Wind Direction,Wind SpeedMPH,Gust SpeedMPH,PrecipitationIn,Events,Conditions,WindDirDegrees,DateUTC
12:54 AM,33.1,28.9,85,30.19,10.0,Calm,Calm,-,N/A,,Clear,0,2012-11-05 06:54:00
1:54 AM,33.1,28.9,85,30.19,9.0,Calm,Calm,-,N/A,,Clear,0,2012-11-05 07:54:00
2:54 AM,33.1,30.0,89,30.19,8.0,Calm,Calm,-,N/A,,Scattered Clouds,0,2012-11-05 08:54:00
3:54 AM,33.1,30.0,89,30.18,6.0,Calm,Calm,-,N/A,,Clear,0,2012-11-05 09:54:00
4:54 AM,33.1,30.0,89,30.18,7.0,ENE,5.8,-,N/A,,Partly Cloudy,60,2012-11-05 10:54:00
5:54 AM,34.0,30.0,85,30.18,9.0,ENE,3.5,-,N/A,,Clear,70,2012-11-05 11:54:00
6:54 AM,34.0,30.9,89,30.18,4.0,Calm,Calm,-,N/A,,Clear,0,2012-11-05 12:54:00
7:54 AM,37.0,30.9,79,30.18,10.0,Calm,Calm,-,N/A,,Mostly Cloudy,0,2012-11-05 13:54:00
8:54 AM,39.9,32.0,73,30.18,10.0,ESE,4.6,-,N/A,,Overcast,120,2012-11-05 14:54:00
9:54 AM,42.1,32.0,67,30.17,10.0,East,6.9,-,0.00,,Overcast,100,2012-11-05 15:54:00
10:54 AM,42.1,30.9,65,30.15,10.0,East,6.9,-,N/A,,Overcast,80,2012-11-05 16:54:00
11:54 AM,43.0,30.0,60,30.14,10.0,ENE,5.8,-,N/A,,Overcast,70,2012-11-05 17:54:00
12:54 PM,44.1,30.9,60,30.12,10.0,Calm,Calm,-,N/A,,Overcast,0,2012-11-05 18:54:00
1:54 PM,45.0,30.9,58,30.11,10.0,Calm,Calm,-,N/A,,Overcast,0,2012-11-05 19:54:00
2:54 PM,44.1,33.1,65,30.11,10.0,Calm,Calm,-,0.00,Rain,Light Rain,0,2012-11-05 20:54:00
3:54 PM,42.1,35.1,76,30.12,10.0,West,4.6,-,0.00,Rain,Light Rain,280,2012-11-05 21:54:00
4:54 PM,41.0,36.0,82,30.12,10.0,WNW,6.9,-,0.00,Rain,Light Rain,300,2012-11-05 22:54:00
5:54 PM,41.0,36.0,82,30.13,9.0,Calm,Calm,-,0.00,,Overcast,0,2012-11-05 23:54:00
6:54 PM,41.0,35.1,79,30.12,9.0,Calm,Calm,-,N/A,,Overcast,0,2012-11-06 00:54:00
7:54 PM,41.0,35.1,79,30.12,10.0,Calm,Calm,-,N/A,,Overcast,0,2012-11-06 01:54:00
8:54 PM,41.0,36.0,82,30.11,9.0,Calm,Calm,-,N/A,,Overcast,0,2012-11-06 02:54:00
9:54 PM,41.0,36.0,82,30.11,6.0,Calm,Calm,-,N/A,,Overcast,0,2012-11-06 03:54:00
10:54 PM,41.0,36.0,82,30.09,8.0,Calm,Calm,-,N/A,,Overcast,0,2012-11-06 04:54:00
11:54 PM,41.0,36.0,82,30.08,8.0,Calm,Calm,-,N/A,,Overcast,0,2012-11-06 05:54:00